Regional Weather Roundup
Issued by NWS

Home | Current Version | Previous Version | Text Only | Print | Product List | Glossary Off
Versions: 1 2 3 4 5 6 7 8 9 10 11 12 13 14 15 16 17 18 19 20 21 22 23 24 25 26 27 28 29 30 31 32 33 34 35 36 37 38 39 40 41 42 43 44 45 46 47 48 49 50

000
ASUS43 KLOT 010121
RWRIL

ILLINOIS REGIONAL WEATHER ROUNDUP
NATIONAL WEATHER SERVICE CHICAGO/ROMEOVILLE IL
800 PM CDT TUE JUN 30 2015

NOTE: "FAIR" INDICATES FEW OR NO CLOUDS BELOW 12,000 FEET WITH NO
SIGNIFICANT WEATHER AND/OR OBSTRUCTIONS TO VISIBILITY.

* THESE STATIONS ARE NOT UNDER NWS QUALITY CONTROL. THEY ALSO MAY NOT
  REPORT WEATHER SUCH AS PRECIPITATION OR FOG.

ILZ001-002-007-009-015-016-024-010200-
NORTHWEST ILLINOIS

CITY           SKY/WX    TMP DP  RH WIND       PRES   REMARKS
MOLINE         MOCLDY    77  63  61 N5        29.85R
STERLING*      PTCLDY    73  61  64 CALM      29.86S
$$

ILZ003-004-008-010-011-017-018-010200-
NORTH CENTRAL ILLINOIS

CITY           SKY/WX    TMP DP  RH WIND       PRES   REMARKS
ROCKFORD       MOCLDY    73  60  63 NW5       29.87R
$$

ILZ005-006-012>014-019>023-010200-
NORTHEAST ILLINOIS

CITY           SKY/WX    TMP DP  RH WIND       PRES   REMARKS
CHICAGO-OHARE  PTCLDY    64  57  78 NE10      29.87R
CHICAGO-MIDWAY PTCLDY    66  58  75 NE8       29.87R
AURORA         CLEAR     70  62  76 NW5       29.86R
WAUKEGAN       CLOUDY    58  54  86 N6          N/A
DUPAGE AIRPORT CLEAR     68  60  75 E6        29.86R
WHEELING       CLEAR     60  54  80 NE8       29.90R
NORTHERLY ISL    N/A     59  57  93 MISG        N/A
$$

LMZ740>746-010200-
SOUTHERN LAKE MICHIGAN

STATION/POSITION SKY/WX   TEMP    WIND        PRES    VSBY  WAVE
                          AIR SEA DIR/SP/G                  HT/PER
                          (F)     (DEG/KT/KT) (MB)    (MI)  (FT/S)
HARRISON CRIB              57     360/ 11/ 14   N/A
BURNHAM HARBOR             59     360/ 11/ 11   N/A
CALUMET HARBOR             59     340/  9/ 11   N/A
BURNS HARBOR               61      20/  9/ 10 1011.9R
MICHIGAN CITY              59      10/ 10/ 12   N/A
MICHIGAN CITY 6N           60 65   40/  8/ 10   N/A           2/ 3
ST. JOSEPH                 62 64                N/A           2/ 3
$$

ILZ025>027-034>036-040-047-049-050-058-095>099-010200-
WEST-CENTRAL ILLINOIS

CITY           SKY/WX    TMP DP  RH WIND       PRES   REMARKS
QUINCY         MOCLDY    76  70  82 W3        29.87R
$$

ILZ028>032-037-038-041>044-048-051>054-059>061-010200-
CENTRAL ILLINOIS

CITY           SKY/WX    TMP DP  RH WIND       PRES   REMARKS
BLOOMINGTON    CLEAR     76  64  66 NW7       29.87R
DECATUR        PTCLDY    76  66  71 N9        29.86R
PEORIA         CLEAR     78  63  59 CALM      29.86R HX  80
SPRINGFIELD    CLEAR     77  70  79 W5        29.86R
TAYLORVILLE    NOT AVBL
$$

ILZ033-039-045-046-055>057-062-063-010200-
EAST-CENTRAL ILLINOIS

CITY           SKY/WX    TMP DP  RH WIND       PRES   REMARKS
CHAMPAIGN      PTCLDY    75  65  70 N6        29.86R
MATTOON        PTCLDY    70  69  97 CALM      29.85R FOG
$$

ILZ079-100>102-010200-
SOUTHWEST ILLINOIS

CITY           SKY/WX    TMP DP  RH WIND       PRES   REMARKS
ALTON          CLOUDY    75  75 100 W6        29.87R
BELLEVILLE     PTCLDY    78  69  74 W3        29.85R HX  80
CAHOKIA*       MOCLDY    81  68  64 W6        29.86R HX  84
$$

ILZ064>066-069>071-074>076-080>082-084>086-088>090-092>094-010200-
SOUTH-CENTRAL ILLINOIS

CITY           SKY/WX    TMP DP  RH WIND       PRES   REMARKS
CARBONDALE     PTCLDY    78  68  71 W3        29.87R HX  80
MT. VERNON     CLEAR     77  64  65 W3        29.87S
$$

ILZ067-068-072-073-078-083-087-091-010200-
SOUTHEAST ILLINOIS

CITY           SKY/WX    TMP DP  RH WIND       PRES   REMARKS
LAWRENCEVILLE  PTCLDY    77  67  71 W7        29.85R
$$

ABBREVIATIONS USED IN REMARKS
   TC - TEMPERATURE IN CELSIUS
  WCI - WIND CHILL INDEX
   HX - HEAT INDEX
  VSB - VISIBILITY
$$




USA.gov is the U.S. government's official web portal to all federal, state and local government web resources and services.